[[{"header":{"parameterUnit":"m.s-1","parameterCategory":1,"la1":30.2991,"la2":30.254,"lo1":-89.0895,"lo2":-89.0444,"dy":0.0017,"dx":0.0017,"nx":28,"ny":28,"refTime":"2024-07-02T21:00:00:Z","depth":0,"parameterNumber":2,"parameterNumberName":"U-component_of_WINDS"},"data":[0,0,0,0,0,0,0,0,0,0,0,0,0,0,0,0,0,0,0,0,0,0,0,0,0,0,0,0,0,0,0,0,0,0,0,0,0,0,0,0,0,0,0,0,0,0,0,0,0,0,0,0,0,0,0,0,0,0,3.2299,3.23,0,3.2412,3.2413,3.2415,3.2398,3.2396,3.2394,3.2393,3.2508,3.2513,3.2518,0,0,0,0,0,0,0,0,0,0,0,0,0,3.2066,3.207,3.2299,3.23,3.2302,3.2412,3.2413,3.2415,3.2399,3.2396,3.2394,3.2392,3.2507,3.2512,3.2518,0,0,0,0,0,0,0,0,0,0,0,0,0,3.2172,3.2071,3.2299,3.2307,3.2309,3.2412,3.2414,3.2415,3.2399,3.2396,3.2393,3.2391,3.2505,3.2512,3.2519,3.2621,0,0,3.2541,3.2544,0,0,0,0,0,0,0,0,3.2166,3.218,3.2304,3.2306,3.2309,3.2388,3.2374,3.2484,3.24,3.2365,3.2393,3.2389,3.2471,3.248,3.2508,3.2626,3.2631,3.2542,3.2546,3.2549,3.2551,0,0,0,0,0,0,0,3.2158,3.2175,3.2344,3.2306,3.2309,3.2304,3.2316,3.2394,3.2432,3.2368,3.2367,3.238,3.2471,3.2501,3.2511,3.2633,3.2542,3.2548,3.2553,3.2555,3.2836,3.2839,0,0,0,0,0,0,3.2149,3.2169,3.234,3.2347,3.2229,3.231,3.2324,3.2365,3.2431,3.2439,3.2383,3.2379,3.249,3.2502,3.2515,3.2635,3.2549,3.2556,3.256,3.2833,3.2837,3.284,0,0,0,0,0,0,3.2144,3.2164,3.2335,3.2258,3.2279,3.2317,3.2364,3.2369,3.2399,3.2443,3.2449,3.2406,3.2488,3.2504,3.2594,3.2639,3.2559,3.2566,3.283,3.2834,3.2839,3.2878,0,0,0,0,0,0,3.2137,3.2163,3.2203,3.2259,3.2284,3.2414,3.2367,3.2373,3.2412,3.2408,3.2467,3.2473,3.2487,3.2583,3.2601,3.2647,3.2572,3.2826,3.2832,3.2837,3.2873,3.2884,3.2893,0,0,0,0,0,3.2129,3.221,3.2205,3.2225,3.2334,3.2416,3.243,3.2444,3.2415,3.2455,3.2482,3.2472,3.2631,3.2592,3.2612,3.2662,3.2823,3.283,3.2837,3.2869,3.2882,3.2893,0,0,0,0,0,0,3.2159,3.2218,3.2212,3.2314,3.236,3.2413,3.2464,3.2458,3.2514,3.2508,3.2523,3.2536,3.2626,3.2653,3.2609,3.2762,3.2723,3.2734,3.274,3.2753,3.2763,3.2753,3.2578,0,0,0,0,0,3.2177,3.2239,3.2287,3.2373,3.2396,3.2426,3.2462,3.2469,3.2517,3.2536,3.2571,3.2618,3.2678,3.2717,3.2776,3.2878,3.2888,3.2921,3.2931,3.2939,3.2948,3.3,3.3014,3.2863,3.2863,3.2863,0,0,3.2216,3.2256,3.2294,3.2379,3.2416,3.2478,3.2442,3.2511,3.2557,3.2547,3.2632,3.2659,3.2712,3.2807,3.2851,3.2833,3.2992,3.2948,3.2954,3.2959,3.3008,3.3023,3.3035,3.2868,3.2867,3.2866,0,0,3.2317,3.2355,3.2428,3.2465,3.252,3.2539,3.2557,3.261,3.2627,3.2713,3.2706,3.2761,3.2866,3.2902,3.2935,3.3047,3.3038,3.3066,3.3117,3.3167,3.3179,3.3189,3.3226,3.324,3.3075,3.3075,3.3075,0,3.2358,3.2452,3.2467,3.2535,3.2571,3.2564,3.2637,3.2672,3.2744,3.2768,3.2747,3.2876,3.2912,3.3013,3.304,3.3068,3.3086,3.3058,3.3176,3.3187,3.3197,3.3232,3.3246,3.3078,3.3078,3.3077,3.3077,0,3.2498,3.2563,3.2616,3.2683,3.2726,3.2796,3.2819,3.2861,3.2863,3.2884,3.297,3.3012,3.3077,3.3102,3.3107,3.3204,3.319,3.3173,3.3134,3.3214,3.3247,3.3261,3.3082,3.3081,3.308,3.308,0,0,3.2621,3.2694,3.2713,3.2742,3.2801,3.2851,3.292,3.2983,3.3017,3.3066,3.3122,3.321,3.3193,3.323,3.3238,3.3283,3.3364,3.3259,3.3261,3.3274,3.347,3.348,3.3496,3.336,3.3362,3.3364,3.3464,0,3.2725,3.2847,3.286,3.2968,3.3027,3.302,3.308,3.3122,3.3143,3.3195,3.3218,3.3278,3.3254,3.3275,3.3319,3.3345,3.3403,3.3339,3.341,3.3412,3.3393,3.3514,3.3526,3.3618,3.3478,3.348,3.3482,0,3.2864,3.2915,3.3028,3.3076,3.3101,3.3155,3.3211,3.3262,3.3309,3.332,3.336,3.3362,3.3431,3.3391,3.3485,3.344,3.347,3.3487,3.3491,3.3496,3.345,3.3519,3.3648,3.3661,3.3503,3.3501,3.3499,0,3.2937,3.3035,3.3114,3.314,3.3199,3.3236,3.3262,3.3306,3.3342,3.3392,3.3415,3.3473,3.3503,3.3547,3.3564,3.3533,3.3656,3.3618,3.3665,3.3664,3.3689,3.3687,3.3822,3.3714,3.3714,3.3713,3.3713,0,3.305,3.3119,3.3148,3.3196,3.3272,3.3287,3.3361,3.3386,3.3424,3.3476,3.3475,3.3524,3.3544,3.3595,3.3609,3.3682,3.3697,3.3707,3.3709,3.3706,3.3704,3.3723,3.3716,3.3717,3.3716,3.3716,3.3715,0,3.3145,3.3167,3.3253,3.3301,3.3314,3.3368,3.3408,3.3454,3.3474,3.354,3.3556,3.3587,3.3647,3.3668,3.3742,3.3751,3.3835,3.3834,3.3819,3.3818,3.3863,3.3857,3.4013,3.4033,3.3915,3.3916,3.3917,0,3.3214,3.3266,3.3319,3.3354,3.3381,3.3437,3.3473,3.3489,3.3526,3.3581,3.362,3.368,3.3728,3.3824,3.3853,3.3908,3.3906,3.3957,3.3914,3.3907,3.3902,3.3898,3.3901,3.3964,3.3965,3.3966,3.3967,0,3.3333,3.3341,3.3393,3.3448,3.3491,3.3535,3.3578,3.3606,3.3628,3.367,3.3731,3.3768,3.3842,3.39,3.3956,3.3982,3.3977,3.398,3.3993,3.3988,3.3976,3.398,3.3837,3.3976,3.3975,3.3974,3.3974,3.3973,3.3415,3.3459,3.3503,3.356,3.3593,3.3633,3.3677,3.3702,3.3753,3.3814,3.382,3.3885,3.3928,3.4002,3.4031,3.4081,3.4066,3.4087,3.4091,3.4095,3.4097,3.3971,3.4092,3.4091,3.4091,3.4091,3.4091,0,3.3531,3.3558,3.361,3.3669,3.3713,3.3705,3.3752,3.3788,3.3845,3.3886,3.3933,3.4001,3.4057,3.4089,3.4144,3.4178,3.4177,3.4192,3.4188,3.4193,3.4108,3.4089,3.4191,3.4191,3.4191,3.4191,3.4191,3.4191,3.3596,3.367,3.3682,3.3772,3.3799,3.3862,3.3888,3.3924,3.3955,3.4032,3.4078,3.4098,3.4135,3.4192,3.4242,3.425,3.4269,3.4285,3.4291,3.421,3.42,3.419,3.4172,3.429,3.429,3.4371,3.4372,3.4373]},{"header":{"parameterUnit":"m.s-1","parameterCategory":1,"la1":30.2991,"la2":30.254,"lo1":-89.0895,"lo2":-89.0444,"dy":0.0017,"dx":0.0017,"nx":28,"ny":28,"refTime":"2024-07-02T21:00:00:Z","depth":0,"parameterNumber":3,"parameterNumberName":"V-component_of_WINDS"},"data":[0,0,0,0,0,0,0,0,0,0,0,0,0,0,0,0,0,0,0,0,0,0,0,0,0,0,0,0,0,0,0,0,0,0,0,0,0,0,0,0,0,0,0,0,0,0,0,0,0,0,0,0,0,0,0,0,0,0,3.3099,3.31,0,3.3172,3.3172,3.3173,3.3135,3.3133,3.3131,3.3129,3.3202,3.3205,3.3209,0,0,0,0,0,0,0,0,0,0,0,0,0,3.2924,3.2927,3.3099,3.31,3.3101,3.3171,3.3172,3.3173,3.3135,3.3133,3.3131,3.3129,3.32,3.3205,3.3209,0,0,0,0,0,0,0,0,0,0,0,0,0,3.2998,3.2928,3.3099,3.309,3.309,3.3171,3.3172,3.3174,3.3136,3.3133,3.313,3.3127,3.3199,3.3204,3.321,3.3303,0,0,3.3227,3.3229,0,0,0,0,0,0,0,0,3.2994,3.3005,3.3091,3.3091,3.3091,3.3141,3.3137,3.3217,3.3137,3.3119,3.3129,3.3126,3.3184,3.319,3.321,3.3306,3.3309,3.3227,3.3231,3.3233,3.3235,0,0,0,0,0,0,0,3.2989,3.3001,3.3127,3.3092,3.3092,3.3082,3.3089,3.3152,3.3166,3.312,3.3117,3.3127,3.3183,3.3205,3.3212,3.331,3.3227,3.3232,3.3236,3.3238,3.3483,3.3486,0,0,0,0,0,0,3.2985,3.2997,3.3125,3.313,3.3035,3.3087,3.3096,3.3128,3.3166,3.3169,3.3129,3.3124,3.3197,3.3205,3.3214,3.3324,3.3233,3.3238,3.3242,3.348,3.3484,3.3487,0,0,0,0,0,0,3.2981,3.2996,3.3122,3.3063,3.3078,3.3093,3.313,3.3131,3.3153,3.3173,3.3175,3.3149,3.3195,3.3206,3.3281,3.3326,3.3241,3.3246,3.3476,3.3481,3.3485,3.3545,0,0,0,0,0,0,3.2976,3.2995,3.3032,3.3064,3.3081,3.3189,3.3133,3.3135,3.3163,3.3158,3.3192,3.3195,3.3194,3.3272,3.3286,3.3332,3.325,3.3472,3.3478,3.3484,3.3539,3.3551,3.3561,0,0,0,0,0,3.297,3.3046,3.3034,3.3049,3.3127,3.3191,3.3201,3.3199,3.3167,3.3203,3.3215,3.3193,3.3319,3.328,3.3295,3.3344,3.3469,3.3477,3.3483,3.3534,3.3549,3.3561,0,0,0,0,0,0,3.3018,3.305,3.3037,3.3125,3.3156,3.3185,3.323,3.3215,3.3255,3.3249,3.3244,3.3252,3.3329,3.3343,3.33,3.3434,3.3389,3.3399,3.3422,3.3436,3.3447,3.3442,3.3255,0,0,0,0,0,3.3039,3.3089,3.3114,3.3189,3.3205,3.3215,3.3243,3.3239,3.327,3.3283,3.3301,3.3331,3.3377,3.3407,3.3451,3.3541,3.3546,3.3581,3.3592,3.3601,3.361,3.3657,3.3672,3.351,3.351,3.351,0,0,3.3082,3.3106,3.3138,3.3199,3.3223,3.3274,3.3226,3.3283,3.332,3.3291,3.3362,3.3376,3.3409,3.3492,3.3529,3.3506,3.3656,3.361,3.3618,3.3622,3.3666,3.3681,3.3695,3.3515,3.3514,3.3514,0,0,3.3188,3.3211,3.3276,3.33,3.3336,3.3342,3.3357,3.3388,3.3396,3.3468,3.3446,3.349,3.357,3.3594,3.3617,3.3729,3.371,3.3744,3.3802,3.3848,3.3861,3.3872,3.3911,3.3925,3.3752,3.3753,3.3753,0,3.3237,3.3314,3.3311,3.3369,3.3395,3.3372,3.3436,3.3459,3.3507,3.3526,3.35,3.3599,3.362,3.3706,3.3733,3.3753,3.3769,3.374,3.3859,3.387,3.3881,3.3918,3.3933,3.3756,3.3756,3.3755,3.3755,0,3.3372,3.3426,3.3474,3.3521,3.3553,3.3614,3.3618,3.3651,3.3644,3.3652,3.3723,3.3748,3.3795,3.3815,3.3808,3.39,3.3885,3.386,3.3814,3.39,3.3935,3.3949,3.3762,3.376,3.3759,3.3758,0,0,3.3511,3.3554,3.3572,3.3592,3.3629,3.367,3.3728,3.3775,3.3803,3.3836,3.3884,3.3952,3.3928,3.3954,3.3949,3.3989,3.4075,3.3959,3.3959,3.3978,3.4176,3.4194,3.4211,3.4063,3.4065,3.4068,3.4173,0,3.3618,3.3722,3.3719,3.3815,3.3864,3.3841,3.3892,3.3919,3.3928,3.3969,3.3978,3.4026,3.3991,3.4007,3.4045,3.4056,3.4114,3.4049,3.4106,3.4108,3.4098,3.4229,3.4249,3.4347,3.4186,3.4189,3.419,0,3.3757,3.3795,3.3895,3.3924,3.3944,3.399,3.4031,3.4072,3.4101,3.4105,3.4133,3.4122,3.418,3.4132,3.4211,3.4167,3.419,3.4199,3.4202,3.4207,3.4154,3.4237,3.4379,3.4393,3.4212,3.421,3.4209,0,3.3846,3.3922,3.3992,3.401,3.4045,3.4078,3.4094,3.4121,3.4148,3.4184,3.4202,3.4244,3.4267,3.4299,3.4298,3.4264,3.4378,3.4331,3.4381,3.4381,3.4406,3.4404,3.4553,3.4422,3.4422,3.4422,3.4421,0,3.3965,3.4027,3.4032,3.4075,3.4143,3.414,3.4207,3.422,3.4244,3.4288,3.427,3.4311,3.4309,3.435,3.435,3.4415,3.4426,3.4429,3.4428,3.443,3.443,3.4445,3.4438,3.4426,3.4425,3.4424,3.4423,0,3.4076,3.4082,3.4157,3.4183,3.4191,3.4241,3.4263,3.4303,3.4309,3.4365,3.4378,3.4388,3.4436,3.4439,3.4494,3.4493,3.4571,3.4563,3.4562,3.456,3.4609,3.4604,3.4773,3.4794,3.465,3.4652,3.4653,0,3.4152,3.4199,3.4231,3.4259,3.4277,3.4323,3.4351,3.4348,3.4378,3.4414,3.4449,3.4495,3.4532,3.4609,3.4621,3.4662,3.4654,3.471,3.466,3.466,3.4654,3.4651,3.4655,3.472,3.4721,3.4723,3.4724,0,3.4284,3.4285,3.4326,3.4368,3.4402,3.4435,3.4465,3.4489,3.449,3.4524,3.4572,3.4601,3.4656,3.4702,3.4742,3.4757,3.474,3.4739,3.4753,3.4755,3.4752,3.4753,3.4587,3.4736,3.4734,3.4733,3.4733,3.4732,3.4379,3.442,3.4448,3.4494,3.4516,3.4545,3.4583,3.4595,3.4636,3.4681,3.4677,3.473,3.4757,3.4809,3.4827,3.4868,3.4849,3.4869,3.4874,3.4879,3.4883,3.4746,3.4876,3.4875,3.4875,3.4875,3.4874,0,3.451,3.4527,3.4569,3.4612,3.4648,3.463,3.4662,3.4693,3.474,3.4767,3.4803,3.4858,3.4902,3.4917,3.4958,3.4988,3.4981,3.4999,3.4997,3.5,3.4899,3.4882,3.5004,3.5004,3.5004,3.5004,3.5004,3.5004,3.4582,3.4649,3.4652,3.4729,3.4745,3.4798,3.4818,3.4844,3.4865,3.4927,3.4963,3.4973,3.4994,3.5037,3.5076,3.5079,3.5094,3.5115,3.5115,3.502,3.5007,3.4995,3.4979,3.5119,3.5119,3.5213,3.5213,3.5214]}]]